THOR ABLESTAR DEB, 48822

Orbit data source: Space-Track

THOR ABLESTAR DEB, 48822 is space debris in LEO originally from a launch on Thu, 29 Jun 1961 UTC launched from the Air Force Eastern Test Range (AFETR). Debris objects in space refer to the collection of defunct objects orbiting the Earth. Examples of debris include non-operational satellites, rocket bodies, and fragments generated from explosions, collisions, or faulty payload assembly.

Loading next visibility...
Identifier
48822, 1961-015NA
Orbit
LEO
Country
Flag of USUS
Related business
Manufacturer
Unknown
Mission
Spacecraft
Bus & Motor
Unknown
Mass
Unknown
Launch date (UTC)
1961-06-29 (65 years ago)
Launch vehicle
Unknown
Launch site
Air Force Eastern Test Range (AFETR)
Object type
Payload
Rocket body
Debris
Shape & HBR
Unknown shape, 0.1 m
Radar Cross Section
Small (<0.1 m²)

Expand to show TLE details & history
Last TLE update: 5 days ago

TLE from 5 days ago
0 THOR ABLESTAR DEB
1 48822U 61015NA  26091.02863359  .00000184  00000-0  15226-3 0  9993
2 48822  66.7168 198.6840 0109798  82.7580 278.5972 14.06012976633907
Epoch: 2026-04-01T00:41Z
TLE epoch observation values (Epoch: 2026-04-01T00:41:13.942Z)
Latitude
0.00001°
Longitude
-1.02143°
Altitude
864.086 km
Speed
7.426 km/s
True Right ascension
13h 14m 44s
True Declination
0° 00' 00"
Sunlit
Object was in full shadow at epoch
Visualization orbit readout
Latitude
Unknown
Longitude
Unknown
Altitude
Unknown
Speed
Unknown
Apparent Right ascension
Unknown
Apparent Declination
Unknown
Sunlit
N/A
Visualization observer readout
Local Sidereal Time
19:25:29
Azimuth
Unknown
Elevation
Unknown
Doppler factor
Unknown
Orbital elements
Apogee altitude
951.037 km
Perigee altitude
791.84 km
Semi-major axis
7,249.576 km
Eccentricity
0.01098
Inclination
66.7168°
RAAN
198.684°
Arg. of periapsis
82.758°
True anomaly
277.35069°
Mean anomaly
278.5972°
Eccentric anomaly
277.97419°
Mean motion
3.51621 °/min
Orbital period
102.38 mins
BSTAR
0.00015226
Loading maneuver chart data...
Computing Atmospheric mass density...
Loading historical data...
Loading historical data...
Loading historical data...
Loading historical data...
Loading historical data...
Loading historical data...
Loading historical data...

Documentation

Showing up to 5 results
|